Regional Weather Roundup
Issued by NWS

Home | Current Version | Previous Version | Graphics & Text | Print | Product List | Glossary On
Versions: 1 2 3 4 5 6 7 8 9 10 11 12 13 14 15 16 17 18 19 20 21 22 23 24 25 26 27 28 29 30 31 32 33 34 35 36 37 38 39 40 41 42 43 44 45 46 47 48 49 50
000
ASUS43 KLMK 202002
RWRKY
KENTUCKY REGIONAL WEATHER ROUNDUP
NATIONAL WEATHER SERVICE LOUISVILLE KY
300 PM EST MON NOV 20 2017

NOTE "FAIR" INDICATES FEW OR NO CLOUDS BELOW 12,000 FEET
WITH NO SIGNIFICANT WEATHER AND/OR OBSTRUCTIONS TO VISIBILITY.

KYZ001>023-026-027-061>063-070>075-202100-
WESTERN AND SOUTH CENTRAL KENTUCKY

CITY           SKY/WX    TMP DP  RH WIND       PRES   REMARKS
PADUCAH        SUNNY     53  26  35 S8        30.09F
HENDERSON      SUNNY     52  26  36 S13       30.08F
OWENSBORO      SUNNY     52  26  36 S10       30.10F
HOPKINSVILLE   CLOUDY    51  21  30 S8        30.11F
BOWLING GREEN  SUNNY     51  24  34 S7        30.14F
GLASGOW        NOT AVBL
$$

KYZ024-025-028>034-038-045-046-053-202100-
NORTH CENTRAL KENTUCKY

CITY           SKY/WX    TMP DP  RH WIND       PRES   REMARKS
LOUISVILLE/SDF CLOUDY    50  23  34 S9        30.11F
LOUISVILLE/LOU SUNNY     50  25  37 S12       30.12F
FORT KNOX      SUNNY     50  23  35 S12       30.09F
$$

KYZ035>037-039>044-047>052-055>060-089>105-202100-
NORTHEAST KENTUCKY

CITY           SKY/WX    TMP DP  RH WIND       PRES   REMARKS
LEXINGTON      SUNNY     47  24  40 S12       30.13F
COVINGTON      PTSUNNY   47  27  45 S16       30.08F
FRANKFORT      SUNNY     49  24  37 S9        30.11F
$$

KYZ054-064>069-076>088-106>120-202100-
SOUTHEAST KENTUCKY

CITY           SKY/WX    TMP DP  RH WIND       PRES   REMARKS
JACKSON        SUNNY     49  25  39 CALM      30.15F
LONDON         SUNNY     50  20  30 SE7       30.15F
SOMERSET       NOT AVBL
MIDDLESBORO    SUNNY     52  26  36 SE3       30.17F
MONTICELLO     CLEAR     52  22  30 E8        30.16F
$$





USA.gov is the U.S. government's official web portal to all federal, state and local government web resources and services.